This demonstration page uses our WeatherBlox Daily Observations layout. Learn more.

Left ArrowRight Arrow

39.01783, -85.05884

Hourly Observations for October 1, 2019

Temp ( °F °C ) Dew Point ( °F °C ) Humidity (%) Winds ( mph kmh ) Pressure ( in mb ) Visibility ( mi km ) Precip ( " mm )
12:52 am 00:52 Clear 73 22.8 64 17.8 74 74 Calm 30.03 1017 9 14 0.00 0.00
1:52 am 01:52 Clear 75 23.9 64 17.8 69 69 Calm 30.02 1017 9 14 0.00 0.00
2:52 am 02:52 Clear 73 22.8 64 17.8 74 74 SSW 3 6 30.02 1017 9 14 0.00 0.00
3:52 am 03:52 Clear 74 23.3 64 17.8 71 71 Calm 30.02 1017 9 14 0.00 0.00
4:52 am 04:52 Mostly Clear 71 21.7 64 17.8 79 79 Calm 30.03 1017 9 14 0.00 0.00
5:52 am 05:52 Mostly Clear 70 21.1 64 17.8 82 82 S 3 6 30.04 1017 7 11 0.00 0.00
6:52 am 06:52 Mostly Clear 69 20.6 64 17.8 84 84 SSW 5 7 30.06 1018 8 13 0.00 0.00
7:52 am 07:52 Partly Cloudy with Mist and Fog 67 19.4 64 17.8 91 91 S 3 6 30.08 1019 6 10 0.00 0.00
8:52 am 08:52 Mostly Sunny 74 23.3 66 18.9 76 76 S 5 7 30.08 1019 8 13 0.00 0.00
9:52 am 09:52 Mostly Sunny 81 27.2 66 18.9 61 61 SSW 7 11 30.08 1019 9 14 0.00 0.00
10:52 am 10:52 Mostly Sunny 85 29.4 66 18.9 53 53 SW 8 13 30.08 1019 10 16 0.00 0.00
11:52 am 11:52 Mostly Sunny 89 31.7 66 18.9 47 47 SW 9 15 30.05 1018 10 16 0.00 0.00
12:52 pm 12:52 Mostly Cloudy 89 31.7 65 18.3 45 45 SSW 9 15 30.04 1017 10 16 0.00 0.00
1:52 pm 13:52 Partly Cloudy 92 33.3 62 16.7 37 37 SW 15 24 30.03 1017 10 16 0.00 0.00
2:52 pm 14:52 Partly Cloudy 94 34.4 62 16.7 35 35 WSW 15 24 30.01 1016 10 16 0.00 0.00
3:52 pm 15:52 Mostly Sunny 93 33.9 62 16.7 36 36 WSW 13 20 30.00 1016 10 16 0.00 0.00
4:52 pm 16:52 Mostly Sunny 91 32.8 61 16.1 37 37 W 9 15 29.99 1016 10 16 0.00 0.00
5:52 pm 17:52 Partly Cloudy 91 32.8 60 15.6 35 35 W 13 20 29.98 1015 10 16 0.00 0.00
6:52 pm 18:52 Partly Cloudy 88 31.1 61 16.1 40 40 W 7 11 29.98 1015 10 16 0.00 0.00
7:52 pm 19:52 Mostly Clear 85 29.4 61 16.1 45 45 Calm 29.98 1015 10 16 0.00 0.00
8:52 pm 20:52 Clear 79 26.1 63 17.2 58 58 SSW 3 6 29.97 1015 10 16 0.00 0.00
9:52 pm 21:52 Clear 78 25.6 62 16.7 58 58 SSW 5 7 29.96 1015 10 16 0.00 0.00
10:52 pm 22:52 Clear 73 22.8 64 17.8 74 74 SSW 5 7 29.96 1014 9 14 0.00 0.00
11:52 pm 23:52 Clear 74 23.3 63 17.2 69 69 SSW 3 6 29.95 1014 10 16 0.00 0.00

Powered by AerisWeather